This is the latest recevied weather packets stored in our database for station/object EB5AGF-13. If no packets are shown the sender has not sent any weather packets the latest 10 day(s).
| Time | Temp. | Humidity | Pressure | Rain* | Wind** | Luminosity | Snow |
|---|---|---|---|---|---|---|---|
| 1778004024 | 20.56° C | 69% | 1007 hPa | 0 mm | 1.79 m/s, 126° | 51 W/m² | - |
| 1778003719 | 20.56° C | 70% | 1006.9 hPa | 0 mm | 2.68 m/s, 137° | 58 W/m² | - |
| 1778003416 | 20° C | 72% | 1006.9 hPa | 0 mm | 2.24 m/s, 210° | 59 W/m² | - |
| 1778003112 | 20.56° C | 71% | 1006.8 hPa | 0 mm | 1.79 m/s, 181° | 53 W/m² | - |
| 1778002807 | 20.56° C | 71% | 1007 hPa | 0 mm | 1.79 m/s, 134° | 53 W/m² | - |
| 1778002503 | 20.56° C | 73% | 1007 hPa | 0 mm | 1.34 m/s, 181° | 93 W/m² | - |
| 1778002199 | 20.56° C | 72% | 1006.9 hPa | 0 mm | 4.02 m/s, 203° | 89 W/m² | - |
| 1778001895 | 21.11° C | 72% | 1007 hPa | 0 mm | 3.58 m/s, 219° | 112 W/m² | - |
| 1778001591 | 21.11° C | 71% | 1006.8 hPa | 0 mm | 0.89 m/s, 194° | 118 W/m² | - |
| 1778001289 | 21.11° C | 71% | 1006.8 hPa | 0 mm | 1.34 m/s, 202° | 117 W/m² | - |
| 1778000983 | 21.11° C | 69% | 1006.8 hPa | 0 mm | 3.13 m/s, 194° | 107 W/m² | - |
| 1778000680 | 21.11° C | 69% | 1006.7 hPa | 0 mm | 1.34 m/s, 312° | 146 W/m² | - |
| 1778000376 | 21.11° C | 70% | 1006.8 hPa | 0 mm | 1.34 m/s, 37° | 156 W/m² | - |
| 1778000073 | 21.11° C | 70% | 1006.8 hPa | 0 mm | 2.68 m/s, 202° | 165 W/m² | - |
| 1777999772 | 21.11° C | 71% | 1006.9 hPa | 0 mm | 1.34 m/s, 47° | 179 W/m² | - |
| 1777999471 | 21.11° C | 70% | 1006.8 hPa | 0 mm | 2.24 m/s, 225° | 158 W/m² | - |
| 1777999172 | 21.11° C | 70% | 1006.8 hPa | 0 mm | 0.89 m/s, 295° | 175 W/m² | - |
| 1777998872 | 21.11° C | 70% | 1007.1 hPa | 0 mm | 3.13 m/s, 229° | 192 W/m² | - |
| 1777998567 | 21.11° C | 70% | 1007.1 hPa | 0 mm | 2.68 m/s, 226° | 176 W/m² | - |
| 1777998265 | 21.11° C | 71% | 1007 hPa | 0 mm | 0.89 m/s, 263° | 202 W/m² | - |
| 1777997960 | 21.11° C | 70% | 1007.1 hPa | 0 mm | 2.24 m/s, 210° | 224 W/m² | - |
| 1777997656 | 21.67° C | 68% | 1007.1 hPa | 0 mm | 3.58 m/s, 230° | 232 W/m² | - |
| 1777997352 | 21.67° C | 68% | 1007.1 hPa | 0 mm | 0.89 m/s, 236° | 246 W/m² | - |
| 1777997047 | 21.11° C | 70% | 1006.9 hPa | 0 mm | 0.45 m/s, 76° | 250 W/m² | - |
| 1777996744 | 21.67° C | 70% | 1007 hPa | 0 mm | 3.13 m/s, 188° | 264 W/m² | - |
* Rain latest hour (hover to see other rain measurements)
** Current wind speed in m/s (hover to see current wind gust speed)